Date,TemperatureHighF,TemperatureAvgF,TemperatureLowF,DewpointHighF,DewpointAvgF,DewpointLowF,HumidityHigh,HumidityAvg,HumidityLow,PressureMaxIn,PressureMinIn,WindSpeedMaxMPH,WindSpeedAvgMPH,GustSpeedMaxMPH,PrecipitationSumIn
2013-1-1,29.1,19.2,11.3,20.1,8.6,3.1,78,63,50,30.40,30.18,4,1,8,0.00
2013-1-2,28.2,16.6,7.7,13.3,4.7,-2.5,68,60,45,30.40,30.29,2,1,5,0.00
2013-1-3,29.7,17.1,7.7,15.0,5.6,-2.2,66,60,48,30.34,30.26,2,0,7,0.00
2013-1-4,31.8,18.9,9.7,18.6,7.9,-0.3,68,62,51,30.37,30.27,3,0,7,0.00
2013-1-5,32.0,22.4,11.7,21.3,11.7,3.6,69,63,53,30.31,30.10,2,0,5,0.00
2013-1-6,34.9,25.5,18.5,22.3,15.6,9.1,75,66,54,30.21,30.09,2,0,7,0.00
2013-1-7,40.5,26.7,14.9,26.4,17.4,6.6,77,68,55,30.30,30.19,2,0,6,0.00
2013-1-8,47.7,32.1,23.0,33.0,23.6,16.6,81,71,55,30.32,30.23,2,0,4,0.00
2013-1-9,56.7,37.2,23.4,34.8,25.3,17.7,86,67,25,30.23,29.77,11,3,29,0.06
2013-1-10,33.4,27.8,24.3,23.5,12.1,7.0,77,52,37,29.99,29.85,6,2,14,0.00
2013-1-11,32.2,25.3,14.0,19.3,11.3,5.5,82,57,36,30.11,29.97,6,2,16,0.00
2013-1-12,25.3,14.9,7.2,8.5,2.2,-3.0,70,58,37,30.17,30.09,2,1,6,0.01
2013-1-13,25.0,12.9,4.6,6.9,-1.3,-7.2,61,53,35,30.27,30.13,5,1,10,0.00
2013-1-14,27.3,14.9,3.9,9.0,0.2,-6.0,65,53,31,30.42,30.26,3,0,7,0.00
2013-1-15,36.7,22.6,12.6,17.8,9.0,2.4,69,57,40,30.60,30.41,3,0,6,0.00
2013-1-16,39.9,23.4,12.2,21.9,12.4,4.1,75,63,47,30.61,30.48,2,0,6,0.00
2013-1-17,35.1,20.9,10.9,19.2,11.0,2.9,78,66,48,30.53,30.40,2,0,7,0.00
2013-1-18,36.0,21.0,11.7,20.6,11.2,3.6,76,66,52,30.45,30.36,3,0,6,0.00
2013-1-19,35.8,21.1,9.3,17.9,9.9,-0.6,69,62,47,30.48,30.37,2,0,7,0.00
2013-1-20,38.3,21.8,9.9,20.6,10.0,-0.1,68,61,44,30.46,30.36,3,0,7,0.00
2013-1-21,42.6,24.8,12.7,21.3,12.5,4.3,73,61,43,30.41,30.27,3,0,8,0.00
2013-1-22,43.5,27.3,14.5,22.5,15.0,6.0,75,61,42,30.32,30.17,2,0,5,0.00
2013-1-23,55.4,39.0,26.1,29.8,21.9,13.5,76,54,23,30.19,30.07,4,1,11,0.00
2013-1-24,50.5,41.6,36.0,37.9,34.9,29.3,92,78,61,30.25,30.16,3,0,7,0.01
2013-1-25,50.9,41.2,36.5,41.9,37.3,33.0,99,86,67,30.25,30.06,2,0,6,0.01
2013-1-26,53.6,40.2,29.1,42.6,29.0,21.9,99,69,35,30.07,29.86,5,2,13,0.00
2013-1-27,38.3,30.4,21.2,25.3,17.4,9.6,81,59,44,30.09,29.91,6,2,17,0.01
2013-1-28,21.0,20.3,18.7,12.1,11.1,7.2,69,67,60,30.10,30.06,2,0,6,0.00
2013-1-29,20.7,20.7,20.7,12.1,12.1,12.1,69,69,69,30.09,30.09,0,0,2,0.00
2013-1-30,20.7,20.7,20.7,12.1,12.1,12.1,69,69,69,30.09,30.09,0,0,2,0.00
2013-1-31,20.7,20.7,20.7,12.1,12.1,12.1,69,69,69,30.09,30.09,0,0,2,0.00
2013-2-1,20.7,20.7,20.7,12.1,12.1,12.1,69,69,69,30.09,30.09,0,0,2,0.00
2013-2-2,20.7,20.7,20.7,12.1,12.1,12.1,69,69,69,30.09,30.09,0,0,2,0.00
2013-2-3,20.7,20.7,20.7,12.1,12.1,12.1,69,69,69,30.09,30.09,0,0,2,0.00
2013-2-4,20.7,20.7,20.7,12.1,12.1,12.1,69,69,69,30.09,30.09,0,0,2,0.00
2013-2-5,44.2,24.2,20.7,22.3,13.2,6.1,69,64,34,30.32,29.91,6,1,14,0.00
2013-2-6,52.3,35.8,22.5,24.1,16.1,10.8,68,49,22,30.09,29.95,3,1,7,0.00
2013-2-7,32.0,28.4,28.0,16.7,10.6,10.1,61,48,47,29.96,29.91,2,1,4,0.00
2013-2-8,28.2,28.2,28.2,10.1,10.1,10.1,47,47,47,29.91,29.91,1,1,2,0.00
2013-2-9,28.2,28.2,28.2,10.1,10.1,10.1,47,47,47,29.91,29.91,1,1,2,0.00
2013-2-10,28.2,28.2,28.2,10.1,10.1,10.1,47,47,47,29.91,29.91,1,1,2,0.00
2013-2-11,28.2,28.2,28.2,10.1,10.1,10.1,47,47,47,29.91,29.91,1,1,2,0.00
2013-2-13,38.1,28.7,15.1,25.8,11.6,6.1,67,49,47,30.04,29.91,2,1,4,0.04
2013-2-14,53.8,38.0,24.6,30.0,24.0,17.7,80,60,36,30.04,29.94,6,1,14,0.00
2013-2-15,58.5,38.6,23.2,30.3,22.5,17.4,85,57,27,30.07,29.94,4,1,11,0.00
2013-2-16,54.7,38.6,22.3,26.0,18.9,14.7,76,50,24,29.98,29.70,3,1,6,0.00
2013-2-17,51.3,35.8,23.2,28.4,18.9,14.0,72,53,31,29.72,29.64,5,1,11,0.00
2013-2-18,54.7,36.7,23.2,24.2,17.6,13.0,70,50,23,29.70,29.43,5,1,16,0.00
2013-2-19,46.8,35.5,30.0,29.9,18.3,7.5,86,53,25,29.44,29.25,6,2,14,0.00
2013-2-20,43.2,33.1,24.8,20.6,14.1,7.3,69,49,26,29.62,29.39,4,2,12,0.00
2013-2-21,46.0,33.9,23.9,18.9,12.3,4.3,65,44,23,29.77,29.58,4,1,11,0.00
2013-2-22,54.5,39.7,22.8,26.4,16.8,12.2,65,44,23,29.85,29.65,6,2,15,0.00
2013-2-23,44.1,34.9,21.7,28.4,15.2,0.9,81,47,24,29.86,29.54,8,4,24,0.00
2013-2-24,44.8,29.6,15.1,16.7,8.3,2.6,76,46,23,29.94,29.84,6,1,14,0.00
2013-2-25,56.7,35.7,20.5,17.0,9.5,0.0,63,39,21,29.86,29.72,7,2,20,0.00
2013-2-26,46.2,32.2,19.0,16.2,7.3,-0.3,64,39,22,29.92,29.82,4,1,10,0.00
2013-2-27,58.1,36.5,17.2,17.4,9.9,3.0,60,37,21,29.98,29.87,3,1,8,0.00
2013-2-28,63.3,44.5,28.9,31.4,23.2,13.5,70,46,28,30.10,29.96,4,1,11,0.00
2013-3-1,65.8,47.3,31.1,33.8,27.7,20.8,81,53,23,30.12,29.96,5,1,13,0.00
2013-3-2,67.1,49.8,35.2,32.0,26.0,17.1,72,45,21,29.99,29.75,6,2,16,0.00
2013-3-3,50.2,44.4,40.1,43.1,39.1,28.1,94,82,44,29.76,29.67,5,1,11,0.07
2013-3-4,58.6,43.6,31.5,38.4,32.7,23.4,94,69,31,29.77,29.65,4,1,8,0.01
2013-3-5,61.2,45.1,28.8,34.8,26.7,21.8,90,55,25,29.68,29.39,6,2,17,0.00
2013-3-6,46.6,38.3,28.8,32.4,24.2,15.2,86,59,38,29.62,29.37,12,4,26,0.02
2013-3-7,46.0,36.7,28.0,29.3,24.0,17.5,76,62,42,29.62,29.50,4,1,9,0.00
2013-3-8,48.9,38.4,28.8,29.3,24.6,19.0,81,60,35,29.64,29.48,3,1,8,0.00
2013-3-9,53.8,39.9,27.5,28.1,15.6,7.3,74,43,21,30.02,29.63,5,1,13,0.00
2013-3-10,59.9,40.9,23.5,20.2,13.3,7.6,61,38,21,30.07,29.93,4,1,9,0.00
2013-3-11,67.3,46.3,27.1,23.2,16.8,12.0,65,36,18,29.98,29.81,4,1,9,0.00
2013-3-12,72.0,50.9,31.8,31.3,22.4,15.4,67,40,15,29.90,29.79,3,1,8,0.00
2013-3-13,77.2,55.2,33.3,35.3,26.9,15.8,78,43,15,29.92,29.80,4,1,12,0.00
2013-3-14,77.0,55.7,42.6,32.5,28.3,17.4,62,40,16,29.88,29.81,6,2,14,0.00
2013-3-15,73.8,53.2,34.3,31.0,23.3,14.4,68,39,15,29.85,29.72,5,2,11,0.00
2013-3-16,70.3,50.4,34.5,28.9,22.0,15.0,64,39,16,29.78,29.63,10,3,21,0.00
2013-3-17,64.8,50.9,39.2,27.2,19.8,12.4,54,34,19,29.75,29.66,6,2,21,0.00
2013-3-18,68.7,47.7,28.2,26.7,19.5,14.7,68,40,17,29.78,29.66,6,2,14,0.00
2013-3-19,66.4,52.2,43.7,37.2,30.6,17.9,67,47,27,29.79,29.68,7,2,17,0.00
2013-3-20,61.7,51.3,44.6,37.0,33.4,28.2,67,53,32,29.69,29.53,13,5,27,0.01
2013-3-21,57.6,46.4,34.7,31.8,22.2,4.1,72,43,23,29.74,29.62,7,3,19,0.00
2013-3-22,53.4,37.2,22.8,12.9,8.3,0.6,57,34,22,29.79,29.65,6,2,16,0.00
2013-3-23,56.5,37.5,20.3,17.0,8.6,2.3,56,34,21,29.86,29.68,4,1,10,0.00
2013-3-24,67.3,46.5,27.7,29.4,18.5,11.2,67,38,20,29.80,29.63,5,2,11,0.00
2013-3-25,71.2,51.5,32.5,28.3,20.3,13.9,61,36,15,29.69,29.56,8,2,17,0.00
2013-3-26,65.7,52.1,41.2,34.3,28.6,18.1,62,44,27,29.62,29.56,8,3,18,0.00
2013-3-27,66.4,49.0,31.6,36.4,30.5,24.0,80,54,25,29.67,29.57,7,2,19,0.00
2013-3-28,62.4,50.6,38.3,41.3,34.4,25.0,77,57,28,29.81,29.65,6,2,14,0.00
2013-3-29,70.7,51.8,35.2,38.5,31.2,19.5,85,54,18,29.86,29.74,5,1,12,0.00
2013-3-30,72.3,56.4,40.6,38.6,30.6,19.1,72,45,17,29.83,29.63,4,2,12,0.00
2013-3-31,57.4,49.9,42.4,44.5,37.1,30.4,95,63,39,29.74,29.61,6,2,15,0.07
2013-4-1,62.6,45.3,36.7,36.1,32.1,26.3,83,63,28,29.74,29.67,6,2,14,0.00
2013-4-2,67.8,51.2,33.6,40.0,33.0,27.3,85,54,24,29.84,29.72,6,1,8,0.00
2013-4-3,73.8,58.9,40.5,41.4,31.9,17.6,80,44,16,29.83,29.68,5,2,13,0.00
2013-4-4,64.2,52.3,43.0,45.8,36.4,31.0,67,56,34,29.72,29.62,7,2,16,0.00
2013-4-5,66.6,51.8,41.0,34.5,27.8,19.5,73,45,22,29.76,29.68,7,3,17,0.00
2013-4-6,64.9,52.6,44.1,35.4,28.5,22.5,59,43,25,29.78,29.69,9,3,19,0.00
2013-4-7,66.6,52.1,39.6,33.7,27.4,18.2,79,44,20,29.72,29.34,10,4,24,0.00
2013-4-8,48.0,39.8,32.9,33.2,24.6,12.4,86,58,29,29.72,29.31,9,4,21,0.01
2013-4-9,56.8,44.0,30.6,23.5,17.6,11.0,64,39,21,29.89,29.71,6,2,15,0.00
2013-4-10,76.8,54.0,31.5,36.7,25.9,17.3,64,40,16,29.95,29.69,7,2,16,0.00
2013-4-11,63.9,52.3,42.4,43.8,31.8,17.1,93,53,21,29.77,29.60,7,2,18,0.07
2013-4-12,71.6,53.5,35.4,35.5,25.5,18.0,70,41,17,29.71,29.52,5,2,10,0.00
2013-4-13,72.9,59.8,47.1,33.8,23.3,12.0,43,28,21,29.57,29.42,9,4,24,0.00
2013-4-14,69.3,50.1,34.9,32.1,21.4,10.2,54,36,20,29.55,29.38,11,3,24,0.01
2013-4-15,57.7,43.6,33.3,33.4,24.9,12.5,82,54,23,29.53,29.38,8,4,21,0.00
2013-4-16,46.2,35.9,32.0,28.3,20.7,7.5,80,56,24,29.80,29.52,8,3,20,0.00
2013-4-17,51.6,38.6,27.5,18.4,11.1,2.7,56,36,22,29.94,29.80,5,2,14,0.00
2013-4-18,62.1,45.5,27.7,23.9,16.0,10.7,56,35,21,29.98,29.89,5,1,11,0.00
2013-4-19,77.4,54.3,34.2,35.0,25.3,17.7,58,38,16,29.94,29.74,7,2,25,0.00
2013-4-20,69.1,54.2,35.1,31.4,23.4,15.4,69,37,17,29.89,29.72,4,1,10,0.00
2013-4-21,77.0,58.5,38.5,29.8,23.2,15.4,59,32,15,29.83,29.68,6,2,17,0.00
2013-4-22,70.5,56.6,40.8,37.5,24.9,8.1,70,36,16,29.84,29.69,6,2,17,0.00
2013-4-23,64.9,50.6,32.7,18.3,13.9,7.2,46,27,18,29.87,29.64,5,2,14,0.00
2013-4-24,65.8,51.1,30.7,21.4,14.8,7.3,54,28,18,29.80,29.65,7,2,21,0.00
2013-4-25,76.8,57.7,37.2,30.0,17.8,8.5,45,26,14,29.79,29.67,5,2,17,0.00
2013-4-26,81.3,63.5,44.1,35.7,26.9,17.6,58,32,14,29.93,29.78,4,1,9,0.00
2013-4-27,87.1,67.8,48.6,37.4,30.8,20.7,60,32,15,29.95,29.79,5,2,13,0.00
2013-4-28,85.3,66.4,47.3,34.1,28.5,21.1,52,30,14,29.83,29.66,6,2,15,0.00
2013-4-29,85.1,64.8,44.8,39.4,33.1,24.2,68,37,16,29.74,29.53,6,2,16,0.00
2013-4-30,69.4,56.6,43.0,34.6,22.2,6.2,69,33,17,29.82,29.57,5,2,13,0.00
2013-5-1,64.2,50.1,33.8,18.1,11.7,0.6,33,24,19,30.06,29.81,6,2,24,0.00
2013-5-2,76.5,56.4,32.2,23.5,16.1,8.6,46,25,14,30.09,29.87,5,1,11,0.00
2013-5-3,80.4,62.7,40.6,37.0,22.9,12.3,68,29,14,29.89,29.65,4,1,14,0.00
2013-5-4,70.5,56.1,41.5,37.9,25.9,14.7,67,37,19,29.70,29.46,5,1,16,0.00
2013-5-5,70.3,53.6,42.1,49.8,39.9,30.8,83,63,27,29.53,29.40,6,2,14,0.04
2013-5-6,64.6,53.2,45.9,47.5,42.5,37.8,91,69,45,29.61,29.50,6,2,17,0.05
2013-5-7,59.5,49.7,42.8,47.6,43.0,39.1,98,79,56,29.68,29.60,6,2,15,0.24
2013-5-8,72.0,57.3,46.2,50.1,43.8,30.4,99,67,27,30.01,29.67,3,1,9,0.33
2013-5-9,77.2,62.1,45.3,48.2,41.1,25.1,88,54,20,30.09,29.98,3,1,10,0.00
2013-5-10,83.8,68.0,49.5,48.3,38.6,22.2,82,43,16,30.15,30.06,4,1,10,0.00
2013-5-11,90.9,71.9,51.6,46.8,38.2,24.4,73,38,13,30.16,30.05,4,1,11,0.00
2013-5-12,90.9,71.9,51.1,43.5,35.7,25.5,69,34,14,30.16,30.02,6,2,19,0.00
2013-5-13,89.4,70.8,49.8,43.9,32.9,21.8,68,33,15,30.07,29.96,6,2,20,0.00
2013-5-14,86.4,69.1,51.3,49.7,35.6,26.2,60,35,17,30.00,29.85,5,2,15,0.00
2013-5-15,82.6,66.6,48.6,46.6,32.2,15.9,75,37,13,29.94,29.87,7,2,17,0.00
2013-5-16,66.0,56.9,51.3,41.1,36.4,31.2,61,48,34,29.92,29.81,6,2,17,0.00
2013-5-17,74.1,59.5,47.3,37.6,30.0,19.3,64,39,17,29.95,29.82,5,2,14,0.00
2013-5-18,77.7,59.4,41.2,36.1,30.4,22.5,65,39,19,30.03,29.93,5,2,17,0.00
2013-5-19,71.6,59.3,47.7,37.6,28.2,15.9,62,37,16,30.11,30.01,3,1,11,0.00
2013-5-20,78.3,61.2,37.4,36.3,27.3,17.3,73,36,16,30.11,29.90,4,1,12,0.00
2013-5-21,81.5,66.0,52.2,36.8,24.4,13.0,54,26,14,29.91,29.72,7,2,18,0.00
2013-5-22,61.0,50.6,35.4,30.8,18.4,10.5,56,32,21,29.84,29.72,6,2,15,0.00
2013-5-23,68.2,52.4,34.3,26.6,19.7,14.8,58,33,17,29.91,29.74,4,1,14,0.00
2013-5-24,80.1,58.4,36.5,33.4,21.8,13.3,58,32,14,29.98,29.84,5,2,14,0.00
2013-5-25,78.6,62.4,45.5,31.1,23.5,15.4,53,27,15,29.94,29.86,6,2,18,0.00
2013-5-26,77.4,61.9,47.7,36.2,27.2,19.1,53,32,17,30.03,29.91,6,2,17,0.00
2013-5-27,68.5,54.6,39.2,43.9,35.9,24.9,74,53,23,30.03,29.87,4,2,14,0.00
2013-5-28,75.0,60.0,48.6,45.8,39.1,26.7,86,51,22,29.90,29.83,4,2,14,0.01
2013-5-29,78.4,63.4,50.5,43.5,36.3,25.8,65,40,17,29.91,29.79,6,3,14,0.00
2013-5-30,84.7,64.1,41.9,41.2,34.5,24.4,79,39,14,30.03,29.89,4,2,17,0.00
2013-5-31,81.9,64.9,45.0,38.3,30.3,21.5,63,32,13,30.12,30.03,5,1,11,0.00
2013-6-1,87.1,70.9,48.4,39.1,31.5,24.0,48,26,14,30.08,29.88,4,1,13,0.00
2013-6-2,93.6,75.1,53.6,45.0,37.9,30.2,55,29,13,29.91,29.76,4,2,14,0.00
2013-6-3,89.4,71.6,50.9,43.9,34.6,27.1,57,29,14,29.96,29.85,4,1,13,0.00
2013-6-4,90.9,74.2,53.6,41.5,33.9,27.6,52,26,12,30.01,29.91,3,1,10,0.00
2013-6-5,94.1,76.3,55.9,48.7,37.9,30.3,53,28,12,30.07,29.93,4,1,9,0.00
2013-6-6,97.3,79.4,60.1,48.8,40.9,35.4,52,29,12,30.04,29.93,6,1,14,0.00
2013-6-7,102.4,81.0,59.2,46.1,39.8,34.3,51,26,11,30.05,29.92,3,1,12,0.00
2013-6-8,92.1,75.0,60.8,54.0,45.3,40.0,54,37,19,30.04,29.99,3,1,10,0.00
2013-6-9,97.0,79.1,59.2,45.5,39.9,35.8,50,28,12,30.05,29.93,7,1,14,0.00
2013-6-10,102.4,82.0,60.8,53.9,41.9,34.4,54,28,11,30.04,29.92,4,1,8,0.00
2013-6-11,91.9,89.4,66.7,47.7,45.2,23.2,22,22,19,29.99,29.92,3,2,4,0.00
2013-11-1,63.1,51.0,39.0,36.9,32.8,30.8,73,52,31,29.93,29.89,4,0,5,1.37
2013-11-2,66.6,45.3,28.4,38.0,30.3,23.0,91,61,22,29.91,29.68,8,2,18,0.00
2013-11-3,46.6,40.7,36.0,32.0,20.9,13.7,64,46,28,29.85,29.74,7,2,15,0.00
2013-11-4,47.8,35.7,25.5,22.7,17.1,11.8,65,48,30,29.95,29.75,4,1,9,0.00
2013-11-5,55.6,37.0,22.5,22.6,17.2,11.9,66,47,23,30.29,29.93,3,1,8,0.00
2013-11-6,60.4,42.3,27.3,30.3,24.4,18.0,76,52,24,30.34,30.24,3,0,7,0.00
2013-11-7,68.4,48.7,39.9,33.5,25.2,13.3,71,44,17,30.25,30.08,8,1,20,0.00
2013-11-8,68.0,48.0,32.4,30.2,24.3,17.2,64,42,20,30.12,29.99,5,1,11,0.00
2013-11-9,66.0,45.7,31.6,31.5,26.4,22.1,73,50,23,30.14,30.05,3,1,6,0.00
2013-11-10,66.2,45.6,30.6,29.7,24.4,17.7,72,47,19,30.20,30.11,3,1,6,0.00
2013-11-11,64.9,46.6,30.2,25.4,20.7,15.5,55,38,20,30.25,30.16,4,1,8,0.00
2013-11-12,68.5,51.4,40.8,30.2,26.2,22.6,55,39,21,30.35,30.25,3,1,12,0.00
2013-11-13,64.8,45.4,32.0,31.7,27.1,22.3,74,52,23,30.33,30.22,3,1,8,0.00
2013-11-14,66.4,47.0,30.6,31.6,26.1,20.3,75,48,20,30.22,29.86,8,2,17,0.00
2013-11-15,48.4,40.7,31.3,32.5,28.5,22.9,79,62,46,29.93,29.75,7,2,14,0.00
2013-11-16,57.9,51.1,29.8,29.3,25.2,15.7,77,38,29,29.77,29.69,9,4,22,0.00
2013-11-17,59.4,53.0,36.1,29.8,27.0,22.6,64,38,28,30.06,29.74,3,2,11,0.00
2013-11-18,53.4,42.7,26.8,34.6,28.3,18.7,79,58,42,30.06,29.95,5,1,12,0.00
2013-11-19,59.5,49.4,43.0,41.6,36.1,31.2,89,61,41,29.99,29.89,5,2,13,0.01
2013-11-20,54.5,44.3,35.6,44.5,39.2,33.8,99,83,56,29.91,29.81,4,1,11,0.15
2013-11-21,35.6,33.4,29.1,34.1,23.3,13.9,95,67,44,30.23,29.91,6,1,14,0.00
2013-11-22,42.4,29.1,18.3,20.2,12.5,2.9,79,53,24,30.28,30.14,3,1,8,0.00
2013-11-23,46.8,29.5,17.4,20.4,13.2,7.6,80,55,22,30.17,30.08,3,0,6,0.00
2013-11-24,47.3,35.7,18.1,20.5,14.7,9.1,73,46,26,30.20,30.12,3,1,7,0.00
2013-11-25,58.5,45.0,28.8,29.5,16.6,15.9,73,34,28,30.42,29.61,1,1,4,0.17
2013-11-26,51.3,34.8,23.4,29.3,22.7,16.6,81,63,36,30.40,30.23,2,0,8,0.00
2013-11-27,52.7,36.3,25.9,30.7,25.4,19.8,85,66,38,30.23,30.06,2,0,6,0.00
2013-11-28,49.6,35.5,27.5,33.2,27.0,21.6,85,72,52,30.25,30.09,3,0,6,0.00
2013-11-29,52.7,35.8,24.8,33.4,26.3,20.1,88,70,42,30.36,30.25,4,1,8,0.00
2013-11-30,53.1,35.7,24.4,31.2,25.0,18.8,86,66,42,30.41,29.63,3,0,7,0.00
2013-12-1,55.2,36.3,23.9,32.1,25.2,18.2,85,66,35,30.47,30.34,2,0,6,0.00
2013-12-2,63.5,48.8,27.9,35.5,23.9,15.5,85,43,20,30.34,29.91,10,4,21,0.00
2013-12-3,47.8,30.8,18.3,36.0,22.2,9.4,91,71,49,29.95,29.79,11,3,27,0.01
2013-12-4,25.0,19.5,10.9,12.9,9.5,4.7,76,65,54,30.10,29.95,4,1,10,0.00
2013-12-5,25.7,18.8,9.9,10.6,7.1,0.9,71,60,51,30.13,30.06,2,1,6,0.01
2013-12-6,30.6,20.9,7.3,22.8,10.1,0.3,84,64,42,30.11,29.80,4,1,10,0.00
2013-12-7,28.2,22.9,9.5,23.7,12.1,-1.5,88,64,42,30.17,29.77,6,2,17,0.00
2013-12-8,19.6,9.0,1.2,5.9,-2.3,-9.8,65,59,50,30.40,30.16,3,1,7,0.01
2013-12-9,21.7,8.5,-2.9,7.3,-3.1,-13.5,65,59,49,30.53,30.40,2,0,6,0.00
2013-12-10,32.0,14.7,1.4,13.4,3.5,-7.5,70,61,45,30.49,30.34,3,0,18,0.01
2013-12-11,29.3,15.9,5.7,15.4,5.9,-3.4,72,64,52,30.45,30.38,3,0,5,0.00
2013-12-12,32.4,17.2,5.0,17.4,7.0,-4.1,77,64,52,30.41,30.27,2,0,6,0.00
2013-12-13,40.6,23.0,10.2,22.7,12.8,2.8,78,66,37,30.50,30.28,3,0,5,0.00
2013-12-14,38.8,23.6,12.9,23.7,14.1,5.8,76,67,49,30.60,30.50,2,0,5,0.00
2013-12-15,40.1,23.9,12.6,24.8,14.8,5.3,79,68,52,30.57,30.46,2,0,5,0.00
2013-12-16,42.1,25.4,14.4,26.8,16.3,7.1,79,69,50,30.54,29.92,2,0,5,0.00
2013-12-17,39.2,26.8,16.7,27.4,18.7,9.6,80,72,58,30.50,30.27,2,0,5,0.00
2013-12-18,43.7,33.4,-37.1,31.5,24.7,-99.9,85,71,1,30.28,29.85,12,1,12,0.00
2013-12-19,41.2,32.6,21.0,28.0,20.4,11.3,79,61,49,30.13,29.84,6,2,14,0.00
2013-12-20,35.4,24.1,13.5,18.5,11.7,5.1,70,60,34,30.19,30.09,3,0,5,0.00
2013-12-21,48.9,34.6,23.9,34.9,25.2,17.2,85,69,50,30.28,30.07,4,1,13,0.00
2013-12-22,49.1,33.8,24.4,32.7,25.0,18.6,82,71,50,30.47,30.28,2,0,5,0.00
2013-12-23,50.7,31.4,23.7,33.4,24.0,18.2,85,75,49,30.52,30.44,1,0,4,0.00
2013-12-24,51.1,33.9,23.7,33.1,24.2,17.3,80,68,47,30.54,30.45,2,0,7,0.00
2013-12-25,47.8,31.4,23.2,33.4,23.6,17.4,82,73,56,30.56,30.45,2,0,5,0.00
2013-12-26,45.0,29.9,20.5,29.7,20.8,14.5,77,69,51,30.52,30.42,2,0,5,0.00
2013-12-27,39.7,27.7,17.6,25.9,18.6,9.9,77,69,55,30.44,30.25,3,0,5,0.00
2013-12-28,45.9,27.6,15.8,25.1,16.2,8.1,76,63,34,30.40,30.24,3,0,7,0.00
2013-12-29,43.7,27.8,17.2,26.7,17.4,9.2,76,65,45,30.44,30.34,2,0,5,0.00
2013-12-30,45.9,30.4,17.8,25.0,18.7,9.4,76,63,39,30.41,30.31,2,0,4,0.00
2013-12-31,53.2,35.9,25.9,28.6,21.0,16.1,75,57,23,30.38,30.29,2,0,7,0.00
2014-1-1,51.3,33.4,22.3,26.4,19.8,15.2,75,59,29,30.41,30.31,2,0,6,0.00
2014-1-2,50.0,33.0,21.6,27.0,21.5,15.7,81,64,36,30.37,30.25,2,0,5,0.00